Location: Observatoire
(46.1952°N, 5.3391°E)
Time: 06:50:42
(UTC+01:00)

Explorer 7 - Pass Details

Date: 27 February 2026
Orbit: 430 x 542 km, 50.2° (Epoch: 5 March)

Event Time Altitude Azimuth Distance (km) Brightness Sun altitude
Rises 16:53:33 0° 293° (WNW) 2,446 10.7 13.5°
Reaches altitude 10° 16:55:39 10° 293° (WNW) 1,588 9.9 13.2°
Maximum altitude 16:59:14 84° 206° (SSW) 471 6.8 12.7°
Drops below altitude 10° 17:02:57 10° 117° (ESE) 1,645 8.9 12.1°
Sets 17:05:09 0° 117° (ESE) 2,543 9.9 11.8°
